Home > Time Zones > World Clock > Weather > Latvia > Riga > Past weeks

Flag for Latvia Weather past 2 weeks in Riga, Latvia

Now
57 °F

Mostly cloudy.


Feels Like: 57 °F
Forecast: 55 / 71 °F
Wind: 5 mph from Northwest

Location: Riga Airport

Current Time: Jul 1, 2015 at 5:15:33 AM

Latest Report: Jul 1, 2015 at 4:50 AM


Visibility: N/A

Pressure: 30.09 "Hg

Humidity: 100%

Dew point: 57 °F

Location of RigaLocation

Historic Weather in Riga — Graph

°F

Riga temperature yesterday

Maximum temperature yesterday: 72 °F (at 2:20 PM)
Minimum temperature yesterday: 54 °F (at 2:50 AM)
Average temperature yesterday: 62 °F

Past Weeks' High & Low Weather Summary

 TemperatureHumidityPressure
High75 °F (Jun 29, 2:50 PM)100% (Jun 16, 4:20 AM)30.09 "Hg (Jun 16, 4:20 AM)
Low39 °F (Jun 16, 4:20 AM)34% (Jun 16, 2:50 PM)29.68 "Hg (Jun 23, 1:20 PM)
Average58 °F78%29.91 "Hg
* Reported Jun 16 4:20 AM — Jul 1 4:20 AM, Riga, Weather by CustomWeather, © 2015

Note: Actual official high and low records may vary slightly from our data, if they occured in-between our weather recording intervals... More about our weather records

Advertising

Riga weather history for previous 24 hours

 ConditionsComfort  
Time TempWeatherWind HumidityBarometerVisibility
4:20 AM
Wed, Jul 1
59 °FPassing clouds.3 mph94%30.09 "HgN/A
3:50 AM59 °FPassing clouds.5 mph100%30.09 "HgN/A
3:20 AM55 °FCool.2 mph100%30.09 "HgN/A
2:50 AM55 °FCool.No wind100%30.09 "HgN/A
2:20 AM55 °FLight fog.2 mph100%30.07 "HgN/A
1:50 AM55 °FCool.No wind100%30.09 "Hg4 mi
1:20 AM57 °FLight fog.No wind100%30.07 "HgN/A
12:50 AM57 °FLight fog.2 mph100%30.07 "HgN/A
12:20 AM59 °FClear.No wind94%30.07 "Hg10 mi
11:50 PM
Tue, Jun 30
61 °FClear.2 mph94%30.07 "Hg10 mi
11:20 PM61 °FClear.2 mph94%30.07 "Hg10 mi
10:50 PM61 °FClear.No wind94%30.07 "Hg5 mi
10:20 PM61 °FSunny.2 mph100%30.07 "Hg10 mi
9:50 PM61 °FSunny.1 mph100%30.04 "Hg10 mi
9:20 PM63 °FPassing clouds.3 mph94%30.04 "HgN/A
8:50 PM63 °FPassing clouds.No wind94%30.04 "HgN/A
7:50 PM63 °FPassing clouds.3 mph94%30.04 "HgN/A
7:20 PM64 °FScattered clouds.2 mph88%30.04 "HgN/A
6:50 PM64 °FPassing clouds.3 mph88%30.04 "HgN/A
5:50 PM64 °FPartly sunny.3 mph88%30.04 "HgN/A
5:20 PM63 °FSprinkles. Broken clouds.5 mph88%30.04 "Hg6 mi
4:50 PM70 °FScattered clouds.9 mph64%30.04 "HgN/A
3:50 PM72 °FScattered clouds.7 mph57%30.01 "HgN/A
3:20 PM72 °FScattered clouds.6 mph57%30.04 "HgN/A
2:50 PM72 °FScattered clouds.5 mph57%30.04 "HgN/A
2:20 PM72 °FScattered clouds.3 mph61%30.04 "HgN/A
1:50 PM70 °FScattered clouds.5 mph64%30.04 "HgN/A
1:20 PM68 °FPartly sunny.5 mph69%30.04 "HgN/A
12:50 PM68 °FPartly sunny.5 mph64%30.04 "HgN/A
12:20 PM70 °FBroken clouds.5 mph60%30.04 "HgN/A
11:50 AM70 °FBroken clouds.6 mph60%30.04 "HgN/A
11:20 AM68 °FScattered clouds.5 mph69%30.04 "HgN/A
10:50 AM68 °FPartly sunny.6 mph69%30.04 "HgN/A
10:20 AM66 °FScattered clouds.6 mph68%30.04 "HgN/A
9:50 AM66 °FScattered clouds.6 mph68%30.04 "HgN/A
9:20 AM64 °FPassing clouds.7 mph73%30.04 "HgN/A
8:50 AM63 °FPassing clouds.3 mph77%30.04 "HgN/A
8:20 AM61 °FPassing clouds.3 mph83%30.04 "HgN/A
7:50 AM59 °FPassing clouds.5 mph88%30.04 "HgN/A
7:20 AM57 °FSunny.5 mph94%30.04 "Hg10 mi
6:50 AM55 °FSunny.2 mph94%30.04 "Hg10 mi
6:20 AM54 °FPassing clouds.3 mph100%30.04 "HgN/A
5:50 AM54 °FSunny.3 mph100%30.04 "Hg10 mi
5:20 AM54 °FClear.2 mph94%30.04 "Hg10 mi
Weather by CustomWeather, © 2015

See weather overviewHow to use our weather pages